Time,TemperatureF,DewpointF,PressureIn,WindDirection,WindDirectionDegrees,WindSpeedMPH,WindSpeedGustMPH,Humidity,HourlyPrecipIn,Conditions,Clouds,dailyrainin,SoftwareType,DateUTC
2013-01-10 00:03:00,35.9,35.0,30.10,WNW,302,0.0,2.0,96,0.00,,,0.00,weatherlink.com 1.10,2013-01-10 08:03:00,
2013-01-10 00:18:00,35.9,35.0,30.10,SE,125,1.0,2.0,96,0.00,,,0.00,weatherlink.com 1.10,2013-01-10 08:18:00,
2013-01-10 00:33:00,35.8,35.0,30.10,West,274,0.0,2.0,97,0.00,,,0.00,weatherlink.com 1.10,2013-01-10 08:33:00,
2013-01-10 00:48:00,35.7,35.0,30.11,SW,224,0.0,1.0,96,0.00,,,0.00,weatherlink.com 1.10,2013-01-10 08:48:00,
2013-01-10 01:03:00,35.5,35.0,30.11,SW,224,0.0,1.0,96,0.00,,,0.00,weatherlink.com 1.10,2013-01-10 09:03:00,
2013-01-10 01:18:00,35.3,34.0,30.11,ESE,121,0.0,1.0,96,0.00,,,0.00,weatherlink.com 1.10,2013-01-10 09:18:00,
2013-01-10 01:33:00,35.3,35.0,30.12,ESE,117,0.0,1.0,97,0.00,,,0.00,weatherlink.com 1.10,2013-01-10 09:33:00,
2013-01-10 01:48:00,35.2,35.0,30.12,ESE,117,1.0,2.0,97,0.01,,,0.01,weatherlink.com 1.10,2013-01-10 09:48:00,
2013-01-10 02:03:00,35.1,34.0,30.12,SSE,148,0.0,2.0,97,0.01,,,0.01,weatherlink.com 1.10,2013-01-10 10:03:00,
2013-01-10 02:18:00,34.9,34.0,30.12,SE,141,0.0,2.0,97,0.01,,,0.01,weatherlink.com 1.10,2013-01-10 10:18:00,
2013-01-10 02:33:00,34.5,34.0,30.13,SE,141,0.0,1.0,97,0.01,,,0.01,weatherlink.com 1.10,2013-01-10 10:33:00,
2013-01-10 02:48:00,33.9,33.0,30.14,SE,141,0.0,0.0,97,0.00,,,0.01,weatherlink.com 1.10,2013-01-10 10:48:00,
2013-01-10 03:03:00,33.5,33.0,30.13,SE,141,0.0,0.0,97,0.00,,,0.01,weatherlink.com 1.10,2013-01-10 11:03:00,
2013-01-10 03:18:00,33.1,32.0,30.13,SE,141,0.0,0.0,97,0.00,,,0.01,weatherlink.com 1.10,2013-01-10 11:18:00,
2013-01-10 03:33:00,32.9,32.0,30.13,SE,141,0.0,0.0,97,0.00,,,0.01,weatherlink.com 1.10,2013-01-10 11:33:00,
2013-01-10 03:48:00,32.8,32.0,30.12,SE,136,0.0,1.0,97,0.00,,,0.01,weatherlink.com 1.10,2013-01-10 11:48:00,
2013-01-10 04:03:00,32.5,32.0,30.13,SE,135,0.0,1.0,97,0.00,,,0.01,weatherlink.com 1.10,2013-01-10 12:03:00,
2013-01-10 04:18:00,32.4,32.0,30.13,SE,135,0.0,0.0,97,0.00,,,0.01,weatherlink.com 1.10,2013-01-10 12:18:00,
2013-01-10 04:33:00,32.0,31.0,30.12,SE,135,0.0,1.0,97,0.00,,,0.01,weatherlink.com 1.10,2013-01-10 12:33:00,
2013-01-10 04:48:00,31.8,31.0,30.13,West,275,0.0,0.0,97,0.00,,,0.01,weatherlink.com 1.10,2013-01-10 12:48:00,
2013-01-10 05:04:00,31.5,31.0,30.13,West,278,0.0,1.0,98,0.00,,,0.01,weatherlink.com 1.10,2013-01-10 13:04:00,
2013-01-10 05:19:00,32.2,32.0,30.13,ESE,120,0.0,1.0,98,0.00,,,0.01,weatherlink.com 1.10,2013-01-10 13:19:00,
2013-01-10 05:34:00,32.6,32.0,30.13,SSW,199,0.0,3.0,98,0.00,,,0.01,weatherlink.com 1.10,2013-01-10 13:34:00,
2013-01-10 05:49:00,32.8,32.0,30.13,SE,142,0.0,1.0,98,0.00,,,0.01,weatherlink.com 1.10,2013-01-10 13:49:00,
2013-01-10 06:04:00,33.0,33.0,30.13,East,88,2.0,3.0,98,0.00,,,0.01,weatherlink.com 1.10,2013-01-10 14:04:00,
2013-01-10 06:19:00,33.2,33.0,30.14,ESE,113,0.0,3.0,98,0.00,,,0.01,weatherlink.com 1.10,2013-01-10 14:19:00,
2013-01-10 06:34:00,33.3,33.0,30.14,ESE,109,0.0,2.0,98,0.00,,,0.01,weatherlink.com 1.10,2013-01-10 14:34:00,
2013-01-10 06:53:00,33.3,33.0,30.14,ESE,110,0.0,2.0,98,0.01,,,0.02,weatherlink.com 1.10,2013-01-10 14:53:00,
2013-01-10 07:04:00,33.4,33.0,30.15,ESE,110,0.0,0.0,98,0.02,,,0.03,weatherlink.com 1.10,2013-01-10 15:04:00,
2013-01-10 07:19:00,33.5,33.0,30.14,ESE,119,0.0,2.0,97,0.03,,,0.04,weatherlink.com 1.10,2013-01-10 15:19:00,
2013-01-10 07:34:00,33.7,33.0,30.16,West,262,0.0,2.0,98,0.04,,,0.05,weatherlink.com 1.10,2013-01-10 15:34:00,
2013-01-10 07:49:00,33.9,33.0,30.15,SSE,149,2.0,3.0,98,0.05,,,0.07,weatherlink.com 1.10,2013-01-10 15:49:00,
2013-01-10 08:04:00,34.2,34.0,30.16,SW,215,1.0,3.0,98,0.05,,,0.08,weatherlink.com 1.10,2013-01-10 16:04:00,
2013-01-10 08:19:00,34.4,34.0,30.16,ESE,121,0.0,2.0,97,0.04,,,0.08,weatherlink.com 1.10,2013-01-10 16:19:00,
2013-01-10 08:34:00,34.6,34.0,30.16,SW,222,0.0,3.0,97,0.03,,,0.08,weatherlink.com 1.10,2013-01-10 16:34:00,
2013-01-10 08:49:00,34.9,34.0,30.16,SSW,201,0.0,2.0,97,0.00,,,0.08,weatherlink.com 1.10,2013-01-10 16:49:00,
2013-01-10 09:04:00,35.3,35.0,30.17,SW,218,0.0,4.0,98,0.00,,,0.08,weatherlink.com 1.10,2013-01-10 17:04:00,
2013-01-10 09:19:00,35.6,35.0,30.17,SW,233,1.0,4.0,97,0.00,,,0.08,weatherlink.com 1.10,2013-01-10 17:19:00,
2013-01-10 09:34:00,36.1,35.0,30.16,ESE,116,1.0,2.0,97,0.00,,,0.08,weatherlink.com 1.10,2013-01-10 17:34:00,
2013-01-10 09:49:00,36.6,36.0,30.17,West,269,0.0,4.0,97,0.00,,,0.08,weatherlink.com 1.10,2013-01-10 17:49:00,
2013-01-10 10:04:00,37.8,37.0,30.17,East,96,0.0,5.0,96,0.00,,,0.08,weatherlink.com 1.10,2013-01-10 18:04:00,
2013-01-10 10:19:00,37.8,37.0,30.17,ESE,105,0.0,2.0,95,0.00,,,0.08,weatherlink.com 1.10,2013-01-10 18:19:00,
2013-01-10 10:34:00,39.3,38.0,30.17,East,94,1.0,4.0,95,0.00,,,0.08,weatherlink.com 1.10,2013-01-10 18:34:00,
2013-01-10 10:49:00,39.5,38.0,30.17,East,92,0.0,6.0,93,0.00,,,0.08,weatherlink.com 1.10,2013-01-10 18:49:00,
2013-01-10 11:04:00,39.7,38.0,30.17,ESE,103,2.0,4.0,92,0.00,,,0.08,weatherlink.com 1.10,2013-01-10 19:04:00,
2013-01-10 11:19:00,39.8,38.0,30.17,ESE,110,0.0,3.0,92,0.00,,,0.08,weatherlink.com 1.10,2013-01-10 19:19:00,
2013-01-10 11:34:00,40.0,38.0,30.16,SE,143,1.0,3.0,92,0.00,,,0.08,weatherlink.com 1.10,2013-01-10 19:34:00,
2013-01-10 11:49:00,40.4,38.0,30.16,ESE,111,1.0,2.0,91,0.00,,,0.08,weatherlink.com 1.10,2013-01-10 19:49:00,
2013-01-10 12:04:00,41.0,39.0,30.16,South,173,0.0,1.0,91,0.00,,,0.08,weatherlink.com 1.10,2013-01-10 20:04:00,
2013-01-10 12:34:00,42.0,39.0,30.16,ESE,118,0.0,1.0,90,0.00,,,0.08,weatherlink.com 1.10,2013-01-10 20:34:00,
2013-01-10 12:49:00,42.7,39.0,30.15,ESE,109,0.0,1.0,88,0.00,,,0.08,weatherlink.com 1.10,2013-01-10 20:49:00,
2013-01-10 13:04:00,43.3,39.0,30.16,NE,39,2.0,2.0,86,0.00,,,0.08,weatherlink.com 1.10,2013-01-10 21:04:00,
2013-01-10 13:19:00,42.7,39.0,30.16,NW,318,0.0,1.0,86,0.00,,,0.08,weatherlink.com 1.10,2013-01-10 21:19:00,
2013-01-10 13:34:00,43.3,40.0,30.16,East,96,1.0,1.0,88,0.00,,,0.08,weatherlink.com 1.10,2013-01-10 21:34:00,
2013-01-10 13:49:00,43.1,39.0,30.16,NE,36,1.0,2.0,85,0.00,,,0.08,weatherlink.com 1.10,2013-01-10 21:49:00,
2013-01-10 14:05:00,43.7,39.0,30.17,NE,56,0.0,1.0,84,0.00,,,0.08,weatherlink.com 1.10,2013-01-10 22:05:00,
2013-01-10 14:20:00,43.8,39.0,30.17,East,79,1.0,2.0,84,0.00,,,0.08,weatherlink.com 1.10,2013-01-10 22:20:00,
2013-01-10 14:35:00,43.7,39.0,30.17,NE,41,3.0,3.0,84,0.00,,,0.08,weatherlink.com 1.10,2013-01-10 22:35:00,
2013-01-10 14:50:00,42.9,39.0,30.17,NNW,330,0.0,5.0,85,0.00,,,0.08,weatherlink.com 1.10,2013-01-10 22:50:00,
2013-01-10 15:05:00,41.7,38.0,30.18,NE,40,0.0,2.0,86,0.00,,,0.08,weatherlink.com 1.10,2013-01-10 23:05:00,
2013-01-10 15:20:00,41.5,38.0,30.18,North,354,0.0,1.0,86,0.00,,,0.08,weatherlink.com 1.10,2013-01-10 23:20:00,
2013-01-10 15:35:00,41.4,38.0,30.18,North,354,0.0,0.0,88,0.00,,,0.08,weatherlink.com 1.10,2013-01-10 23:35:00,
2013-01-10 15:50:00,41.1,38.0,30.19,North,354,0.0,0.0,88,0.00,,,0.08,weatherlink.com 1.10,2013-01-10 23:50:00,
2013-01-10 16:05:00,40.7,38.0,30.19,North,354,0.0,0.0,90,0.00,,,0.08,weatherlink.com 1.10,2013-01-11 00:05:00,
2013-01-10 16:20:00,40.2,38.0,30.19,North,353,0.0,1.0,92,0.00,,,0.08,weatherlink.com 1.10,2013-01-11 00:20:00,
2013-01-10 16:35:00,39.8,38.0,30.20,North,353,0.0,0.0,92,0.00,,,0.08,weatherlink.com 1.10,2013-01-11 00:35:00,
2013-01-10 16:50:00,39.5,38.0,30.20,North,354,0.0,0.0,94,0.00,,,0.08,weatherlink.com 1.10,2013-01-11 00:50:00,
2013-01-10 17:05:00,38.8,37.0,30.20,North,351,0.0,1.0,94,0.00,,,0.08,weatherlink.com 1.10,2013-01-11 01:05:00,
2013-01-10 17:20:00,38.4,37.0,30.20,North,6,0.0,1.0,95,0.00,,,0.08,weatherlink.com 1.10,2013-01-11 01:20:00,
2013-01-10 17:35:00,38.3,37.0,30.20,North,6,0.0,0.0,95,0.00,,,0.08,weatherlink.com 1.10,2013-01-11 01:35:00,
2013-01-10 17:50:00,37.8,37.0,30.21,North,6,0.0,0.0,95,0.00,,,0.08,weatherlink.com 1.10,2013-01-11 01:50:00,
2013-01-10 18:05:00,38.0,37.0,30.21,NW,325,0.0,1.0,96,0.00,,,0.08,weatherlink.com 1.10,2013-01-11 02:05:00,
2013-01-10 18:20:00,38.0,37.0,30.21,West,263,0.0,1.0,96,0.01,,,0.09,weatherlink.com 1.10,2013-01-11 02:20:00,
2013-01-10 18:35:00,38.3,37.0,30.21,NW,315,1.0,1.0,95,0.04,,,0.12,weatherlink.com 1.10,2013-01-11 02:35:00,
2013-01-10 18:50:00,38.4,37.0,30.21,North,349,0.0,1.0,93,0.04,,,0.12,weatherlink.com 1.10,2013-01-11 02:50:00,
2013-01-10 19:08:00,37.7,36.0,30.21,NW,308,0.0,1.0,94,0.04,,,0.12,weatherlink.com 1.10,2013-01-11 03:08:00,
2013-01-10 19:20:00,36.6,35.0,30.21,NW,308,0.0,1.0,95,0.02,,,0.12,weatherlink.com 1.10,2013-01-11 03:20:00,
2013-01-10 19:35:00,36.1,35.0,30.22,NW,307,0.0,0.0,96,0.00,,,0.12,weatherlink.com 1.10,2013-01-11 03:35:00,
2013-01-10 19:50:00,35.5,35.0,30.22,NW,308,0.0,0.0,96,0.00,,,0.12,weatherlink.com 1.10,2013-01-11 03:50:00,
2013-01-10 20:05:00,35.3,34.0,30.22,NW,307,0.0,0.0,96,0.00,,,0.12,weatherlink.com 1.10,2013-01-11 04:05:00,
2013-01-10 20:20:00,35.0,34.0,30.22,NW,307,0.0,1.0,97,0.00,,,0.12,weatherlink.com 1.10,2013-01-11 04:20:00,
2013-01-10 20:35:00,34.9,34.0,30.22,NW,308,0.0,0.0,97,0.00,,,0.12,weatherlink.com 1.10,2013-01-11 04:35:00,
2013-01-10 20:50:00,35.4,35.0,30.22,West,274,0.0,3.0,97,0.00,,,0.12,weatherlink.com 1.10,2013-01-11 04:50:00,
2013-01-10 21:05:00,35.7,35.0,30.22,West,281,0.0,1.0,96,0.00,,,0.12,weatherlink.com 1.10,2013-01-11 05:05:00,
2013-01-10 21:20:00,35.2,34.0,30.22,South,169,0.0,1.0,94,0.00,,,0.12,weatherlink.com 1.10,2013-01-11 05:20:00,
2013-01-10 21:35:00,34.5,34.0,30.22,SW,229,0.0,1.0,96,0.00,,,0.12,weatherlink.com 1.10,2013-01-11 05:35:00,
2013-01-10 21:50:00,33.6,33.0,30.22,NW,324,0.0,1.0,96,0.00,,,0.12,weatherlink.com 1.10,2013-01-11 05:50:00,
2013-01-10 22:05:00,33.7,33.0,30.22,SW,217,0.0,0.0,97,0.00,,,0.12,weatherlink.com 1.10,2013-01-11 06:05:00,
2013-01-10 22:20:00,32.8,32.0,30.22,SW,217,0.0,0.0,96,0.00,,,0.12,weatherlink.com 1.10,2013-01-11 06:20:00,
2013-01-10 22:35:00,32.3,32.0,30.22,SW,217,0.0,0.0,97,0.00,,,0.12,weatherlink.com 1.10,2013-01-11 06:35:00,
2013-01-10 22:50:00,31.8,31.0,30.22,SW,217,0.0,0.0,97,0.00,,,0.12,weatherlink.com 1.10,2013-01-11 06:50:00,
2013-01-10 23:05:00,32.5,32.0,30.22,WNW,287,0.0,1.0,98,0.00,,,0.12,weatherlink.com 1.10,2013-01-11 07:05:00,
2013-01-10 23:20:00,32.9,32.0,30.23,NE,52,0.0,2.0,98,0.00,,,0.12,weatherlink.com 1.10,2013-01-11 07:20:00,
2013-01-10 23:35:00,32.7,32.0,30.23,NE,36,1.0,1.0,97,0.00,,,0.12,weatherlink.com 1.10,2013-01-11 07:35:00,
2013-01-10 23:50:00,32.0,31.0,30.23,NE,35,0.0,0.0,97,0.00,,,0.12,weatherlink.com 1.10,2013-01-11 07:50:00,